Home > Time Zones > World Clock > Weather > Aktau > Past weeks

Flag for Kazakhstan Weather past 2 weeks in Aktau, Kazakhstan

Now
86 °F

Partly sunny.


Feels Like: 83 °F
Forecast: 77 / 92 °F
Wind: 24 mph from Northeast

Location: Aktau

Current Time: Jul 3, 2015 at 11:08:22 PM

Latest Report: Jul 3, 2015 at 10:30 PM


Visibility: N/A

Pressure: 29.86 "Hg

Humidity: 25%

Dew point: 46 °F

Location of AktauLocation

Historic Weather in Aktau — Graph

°F

Aktau temperature yesterday

Maximum temperature yesterday: 93 °F (at 6:30 PM)
Minimum temperature yesterday: 72 °F (at 5:30 AM)
Average temperature yesterday: 83 °F

Past Weeks' High & Low Weather Summary

 TemperatureHumidityPressure
High106 °F (Jun 22, 12:00 PM)94% (Jun 29, 8:00 AM)30.04 "Hg (Jun 29, 8:00 AM)
Low66 °F (Jun 20, 6:30 AM)4% (Jun 25, 1:30 PM)29.53 "Hg (Jun 26, 7:00 PM)
Average87 °F35%29.74 "Hg
* Reported Jun 18 10:00 PM — Jul 3 10:00 PM, Aktau, Weather by CustomWeather, © 2015

Note: Actual official high and low records may vary slightly from our data, if they occured in-between our weather recording intervals... More about our weather records

Advertising

Aktau weather history for previous 24 hours

 ConditionsComfort  
Time TempWeatherWind HumidityBarometerVisibility
10:00 PM
Fri, Jul 3
88 °FPartly sunny.24 mph24%29.83 "HgN/A
9:30 PM88 °FPartly sunny.24 mph24%29.83 "HgN/A
9:00 PM90 °FPartly sunny.24 mph21%29.80 "HgN/A
8:30 PM91 °FSunny.24 mph18%29.80 "Hg10 mi
8:00 PM93 °FSunny.26 mph16%29.80 "Hg10 mi
7:30 PM97 °FSunny.17 mph17%29.77 "Hg10 mi
7:00 PM97 °FSunny.6 mph19%29.77 "Hg10 mi
6:30 PM95 °FSunny.10 mph20%29.77 "Hg10 mi
6:00 PM91 °FSunny.15 mph24%29.80 "Hg10 mi
5:30 PM95 °FSunny.20 mph22%29.80 "Hg10 mi
5:00 PM99 °FSunny.20 mph18%29.80 "Hg10 mi
4:30 PM102 °FSunny.17 mph13%29.83 "Hg10 mi
4:00 PM100 °FSunny.6 mph14%29.83 "Hg10 mi
3:30 PM100 °FScattered clouds.8 mph14%29.83 "HgN/A
3:00 PM100 °FScattered clouds.8 mph14%29.83 "HgN/A
2:30 PM99 °FScattered clouds.8 mph15%29.86 "HgN/A
2:00 PM97 °FPassing clouds.10 mph18%29.86 "HgN/A
1:30 PM95 °FPassing clouds.10 mph18%29.89 "HgN/A
1:00 PM93 °FSunny.10 mph20%29.89 "Hg10 mi
12:30 PM93 °FSunny.13 mph21%29.89 "Hg10 mi
12:00 PM91 °FSunny.15 mph24%29.89 "Hg10 mi
11:30 AM90 °FSunny.15 mph29%29.92 "Hg10 mi
11:00 AM88 °FSunny.15 mph31%29.92 "Hg10 mi
10:30 AM86 °FSunny.15 mph35%29.92 "Hg10 mi
10:00 AM86 °FSunny.17 mph33%29.92 "Hg10 mi
9:30 AM84 °FSunny.13 mph33%29.92 "Hg10 mi
9:00 AM84 °FSunny.13 mph31%29.92 "Hg10 mi
8:30 AM82 °FSunny.13 mph35%29.92 "Hg10 mi
8:00 AM81 °FSunny.13 mph39%29.92 "Hg10 mi
7:30 AM79 °FClear.10 mph42%29.92 "Hg10 mi
7:00 AM77 °FClear.10 mph47%29.92 "Hg10 mi
6:30 AM77 °FClear.10 mph47%29.92 "Hg10 mi
6:00 AM77 °FClear.10 mph51%29.92 "Hg10 mi
5:30 AM77 °FClear.13 mph51%29.92 "Hg10 mi
5:00 AM77 °FClear.10 mph47%29.92 "Hg10 mi
4:30 AM79 °FClear.10 mph45%29.92 "Hg10 mi
4:00 AM77 °FClear.8 mph47%29.92 "Hg10 mi
3:30 AM77 °FClear.8 mph47%29.92 "Hg10 mi
2:30 AM79 °FClear.8 mph42%29.95 "Hg10 mi
2:00 AM79 °FClear.8 mph39%29.95 "Hg10 mi
1:30 AM79 °FClear.10 mph39%29.95 "Hg10 mi
1:00 AM81 °FClear.10 mph39%29.95 "Hg10 mi
12:30 AM81 °FClear.10 mph42%29.95 "Hg10 mi
12:00 AM82 °FClear.10 mph37%29.95 "Hg10 mi
11:30 PM
Thu, Jul 2
82 °FClear.10 mph37%29.95 "Hg10 mi
11:00 PM84 °FSunny.13 mph35%29.98 "Hg10 mi
Weather by CustomWeather, © 2015

See weather overviewHow to use our weather pages